Simultaneous Nadir Overpasses (SNOs) Predictions

Prediction of SNOs between AQUA and NPP Satellite Orbit:

Table of predicted SNOs for the next 14.0 days since TLE Epoch: 11/9/2019
Index Date (AQUA) Time (AQUA) Lat,Lon (AQUA) SZA (AQUA ) Date (NPP) Time (NPP) Lat,Lon (NPP) SZA (NPP ) Distance(km) Time Diff (sec)
1 11/09/2019 05:32:20 75.12, -26.57 113.60 11/09/2019 05:31:19 75.12, -26.56 113.66 0.34 61
2 11/09/2019 06:21:21 -76.44, 145.01 67.78 11/09/2019 06:21:36 -76.45, 145.10 67.82 2.57 15
3 11/11/2019 21:48:37 75.68, 90.88 113.77 11/11/2019 21:48:00 75.69, 90.95 113.78 2.07 37
4 11/11/2019 22:37:47 -76.54, -98.76 67.15 11/11/2019 22:38:27 -76.54, -98.79 67.18 0.82 40
5 11/14/2019 14:05:04 75.78,-152.93 114.37 11/14/2019 14:04:52 75.78,-152.98 114.40 1.55 12
6 11/14/2019 14:54:06 -77.02, 18.82 66.95 11/14/2019 14:55:10 -77.03, 18.90 67.03 2.18 64
7 11/17/2019 05:32:23 -75.02, 153.18 64.18 11/17/2019 05:31:18 -75.02, 153.17 64.11 0.54 65
8 11/17/2019 06:21:21 76.37, -35.21 114.43 11/17/2019 06:21:33 76.37, -35.17 114.41 1.15 12
9 11/19/2019 21:48:37 -75.77, -88.87 64.29 11/19/2019 21:47:56 -75.77, -88.77 64.28 2.77 41
10 11/19/2019 22:37:48 76.46, 80.97 114.98 11/19/2019 22:38:25 76.46, 80.91 114.97 1.65 37
11 11/22/2019 14:05:00 -76.00, 27.72 63.92 11/22/2019 14:04:44 -76.00, 27.75 63.91 0.88 16




NCC Satellite Simultaneous Nadir Overpasses (SNOs) Prediction Service
